Location: St. Louis
(38.6270°N, 90.1994°W)
Time: 04:14:40
(UTC-06:00)

Explorer 7 - Pass Details

Date: 08 December 2021
Orbit: 483 x 674 km, 50.3° (Epoch: 19 January)

Event Time Altitude Azimuth Distance (km) Brightness Sun altitude
Exits shadow 04:20:23 15° 43° (NE) 1,577 9.5 -31.6°
Drops below altitude 10° 04:21:10 10° 46° (NE) 1,868 10.0 -31.5°
Sets 04:23:23 0° 51° (NE) 2,732 11.0 -31.0°
